Time,TemperatureF,DewpointF,PressureIn,WindDirection,WindDirectionDegrees,WindSpeedMPH,WindSpeedGustMPH,Humidity,HourlyPrecipIn,Conditions,Clouds,dailyrainin,SoftwareType,DateUTC
2013-07-04 00:01:00,77.6,70.6,30.14,West,269,5.0,5.0,79,0.00,,,0.00,Wunderground v.1.15,2013-07-04 04:01:00,
2013-07-04 00:02:00,77.6,70.6,30.14,West,269,2.0,5.0,79,0.00,,,0.00,Wunderground v.1.15,2013-07-04 04:02:00,
2013-07-04 00:04:00,77.6,70.6,30.14,SSW,194,2.0,5.0,79,0.00,,,0.00,Wunderground v.1.15,2013-07-04 04:04:00,
2013-07-04 00:05:00,77.5,70.5,30.14,SW,225,0.0,5.0,79,0.00,,,0.00,Wunderground v.1.15,2013-07-04 04:05:00,
2013-07-04 00:06:00,77.5,70.5,30.14,WSW,252,3.0,5.0,79,0.00,,,0.00,Wunderground v.1.15,2013-07-04 04:06:00,
2013-07-04 00:11:00,77.5,70.5,30.14,SW,217,0.0,7.0,79,0.00,,,0.00,Wunderground v.1.15,2013-07-04 04:11:00,
2013-07-04 00:17:00,77.3,70.3,30.14,WSW,242,6.0,7.0,79,0.00,,,0.00,Wunderground v.1.15,2013-07-04 04:17:00,
2013-07-04 00:22:00,77.3,70.3,30.14,WSW,254,3.0,3.0,79,0.00,,,0.00,Wunderground v.1.15,2013-07-04 04:22:00,
2013-07-04 00:27:00,77.2,70.2,30.14,West,275,6.0,6.0,79,0.00,,,0.00,Wunderground v.1.15,2013-07-04 04:27:00,
2013-07-04 00:33:00,77.1,70.1,30.14,West,265,4.0,4.0,79,0.00,,,0.00,Wunderground v.1.15,2013-07-04 04:33:00,
2013-07-04 00:38:00,77.1,70.5,30.14,SW,217,2.0,4.0,80,0.00,,,0.00,Wunderground v.1.15,2013-07-04 04:38:00,
2013-07-04 00:43:00,77.0,70.4,30.14,WSW,244,1.0,4.0,80,0.00,,,0.00,Wunderground v.1.15,2013-07-04 04:43:00,
2013-07-04 00:49:00,77.0,70.4,30.15,NW,318,2.0,4.0,80,0.00,,,0.00,Wunderground v.1.15,2013-07-04 04:49:00,
2013-07-04 00:54:00,76.9,70.3,30.15,SSW,195,0.0,7.0,80,0.00,,,0.00,Wunderground v.1.15,2013-07-04 04:54:00,
2013-07-04 00:59:00,76.9,70.3,30.15,West,279,0.0,7.0,80,0.00,,,0.00,Wunderground v.1.15,2013-07-04 04:59:00,
2013-07-04 01:05:00,76.8,70.2,30.15,WSW,242,5.0,5.0,80,0.00,,,0.00,Wunderground v.1.15,2013-07-04 05:05:00,
2013-07-04 01:11:00,76.7,70.1,30.14,SSW,210,0.0,1.0,80,0.00,,,0.00,Wunderground v.1.15,2013-07-04 05:11:00,
2013-07-04 01:16:00,76.6,70.0,30.14,SSW,210,0.0,4.0,80,0.00,,,0.00,Wunderground v.1.15,2013-07-04 05:16:00,
2013-07-04 01:21:00,76.6,70.3,30.14,WSW,241,1.0,1.0,81,0.00,,,0.00,Wunderground v.1.15,2013-07-04 05:21:00,
2013-07-04 01:26:00,76.5,70.2,30.14,WSW,246,0.0,1.0,81,0.00,,,0.00,Wunderground v.1.15,2013-07-04 05:26:00,
2013-07-04 01:32:00,76.4,70.1,30.14,WSW,256,1.0,3.0,81,0.00,,,0.00,Wunderground v.1.15,2013-07-04 05:32:00,
2013-07-04 01:37:00,76.4,70.1,30.14,SW,234,2.0,3.0,81,0.00,,,0.00,Wunderground v.1.15,2013-07-04 05:37:00,
2013-07-04 01:42:00,76.3,70.0,30.14,West,260,0.0,1.0,81,0.00,,,0.00,Wunderground v.1.15,2013-07-04 05:42:00,
2013-07-04 01:47:00,76.2,69.9,30.14,West,260,0.0,1.0,81,0.00,,,0.00,Wunderground v.1.15,2013-07-04 05:47:00,
2013-07-04 01:52:00,76.2,69.9,30.14,SSW,202,0.0,1.0,81,0.00,,,0.00,Wunderground v.1.15,2013-07-04 05:52:00,
2013-07-04 01:58:00,76.2,69.9,30.14,West,264,0.0,1.0,81,0.00,,,0.00,Wunderground v.1.15,2013-07-04 05:58:00,
2013-07-04 02:03:00,76.2,69.9,30.14,WSW,247,1.0,4.0,81,0.00,,,0.00,Wunderground v.1.15,2013-07-04 06:03:00,
2013-07-04 02:08:00,76.1,69.8,30.14,WSW,248,1.0,4.0,81,0.00,,,0.00,Wunderground v.1.15,2013-07-04 06:08:00,
2013-07-04 02:13:00,76.1,70.2,30.14,WSW,248,0.0,2.0,82,0.00,,,0.00,Wunderground v.1.15,2013-07-04 06:13:00,
2013-07-04 02:18:00,76.0,70.1,30.14,WSW,248,0.0,2.0,82,0.00,,,0.00,Wunderground v.1.15,2013-07-04 06:18:00,
2013-07-04 02:23:00,76.0,70.1,30.14,WSW,248,0.0,2.0,82,0.00,,,0.00,Wunderground v.1.15,2013-07-04 06:23:00,
2013-07-04 02:28:00,75.9,70.0,30.14,West,275,0.0,5.0,82,0.00,,,0.00,Wunderground v.1.15,2013-07-04 06:28:00,
2013-07-04 02:33:00,75.9,70.0,30.14,SSW,209,0.0,4.0,82,0.00,,,0.00,Wunderground v.1.15,2013-07-04 06:33:00,
2013-07-04 02:38:00,75.8,69.9,30.14,West,261,0.0,4.0,82,0.00,,,0.00,Wunderground v.1.15,2013-07-04 06:38:00,
2013-07-04 02:43:00,75.7,69.8,30.14,WSW,246,0.0,3.0,82,0.00,,,0.00,Wunderground v.1.15,2013-07-04 06:43:00,
2013-07-04 02:48:00,75.7,69.8,30.13,WSW,242,1.0,3.0,82,0.00,,,0.00,Wunderground v.1.15,2013-07-04 06:48:00,
2013-07-04 02:53:00,75.6,70.1,30.13,WSW,256,0.0,4.0,83,0.00,,,0.00,Wunderground v.1.15,2013-07-04 06:53:00,
2013-07-04 02:58:00,75.6,70.1,30.13,South,187,2.0,4.0,83,0.00,,,0.00,Wunderground v.1.15,2013-07-04 06:58:00,
2013-07-04 03:03:00,75.6,70.1,30.13,SW,234,0.0,4.0,83,0.00,,,0.00,Wunderground v.1.15,2013-07-04 07:03:00,
2013-07-04 03:08:00,75.5,70.0,30.13,SSW,195,0.0,4.0,83,0.00,,,0.00,Wunderground v.1.15,2013-07-04 07:08:00,
2013-07-04 03:13:00,75.5,70.0,30.13,SSW,195,0.0,1.0,83,0.00,,,0.00,Wunderground v.1.15,2013-07-04 07:13:00,
2013-07-04 03:18:00,75.4,69.9,30.13,SSW,195,0.0,1.0,83,0.00,,,0.00,Wunderground v.1.15,2013-07-04 07:18:00,
2013-07-04 03:23:00,75.4,69.9,30.13,SW,218,0.0,3.0,83,0.00,,,0.00,Wunderground v.1.15,2013-07-04 07:23:00,
2013-07-04 03:28:00,75.3,69.8,30.13,SSW,209,0.0,3.0,83,0.00,,,0.00,Wunderground v.1.15,2013-07-04 07:28:00,
2013-07-04 03:33:00,75.3,69.8,30.13,WSW,258,1.0,3.0,83,0.00,,,0.00,Wunderground v.1.15,2013-07-04 07:33:00,
2013-07-04 03:38:00,75.2,69.7,30.13,WSW,258,0.0,3.0,83,0.00,,,0.00,Wunderground v.1.15,2013-07-04 07:38:00,
2013-07-04 03:43:00,75.1,69.6,30.13,WSW,238,0.0,5.0,83,0.00,,,0.00,Wunderground v.1.15,2013-07-04 07:43:00,
2013-07-04 03:48:00,75.1,69.6,30.13,WSW,238,0.0,5.0,83,0.00,,,0.00,Wunderground v.1.15,2013-07-04 07:48:00,
2013-07-04 03:53:00,75.1,69.9,30.13,WSW,238,0.0,1.0,84,0.00,,,0.00,Wunderground v.1.15,2013-07-04 07:53:00,
2013-07-04 03:58:00,75.0,69.8,30.13,WSW,238,0.0,1.0,84,0.00,,,0.00,Wunderground v.1.15,2013-07-04 07:58:00,
2013-07-04 04:03:00,75.0,69.8,30.13,WSW,238,0.0,3.0,84,0.00,,,0.00,Wunderground v.1.15,2013-07-04 08:03:00,
2013-07-04 04:08:00,74.9,69.7,30.14,West,269,4.0,4.0,84,0.00,,,0.00,Wunderground v.1.15,2013-07-04 08:08:00,
2013-07-04 04:13:00,74.9,69.7,30.14,WSW,237,2.0,5.0,84,0.00,,,0.00,Wunderground v.1.15,2013-07-04 08:13:00,
2013-07-04 04:18:00,74.9,69.7,30.13,SW,222,0.0,5.0,84,0.00,,,0.00,Wunderground v.1.15,2013-07-04 08:18:00,
2013-07-04 04:23:00,74.8,69.6,30.13,WSW,237,0.0,3.0,84,0.00,,,0.00,Wunderground v.1.15,2013-07-04 08:23:00,
2013-07-04 04:28:00,74.8,69.6,30.14,SW,233,0.0,6.0,84,0.00,,,0.00,Wunderground v.1.15,2013-07-04 08:28:00,
2013-07-04 04:33:00,74.8,69.6,30.14,South,183,3.0,3.0,84,0.00,,,0.00,Wunderground v.1.15,2013-07-04 08:33:00,
2013-07-04 04:38:00,74.8,69.6,30.14,WSW,250,1.0,4.0,84,0.00,,,0.00,Wunderground v.1.15,2013-07-04 08:38:00,
2013-07-04 04:43:00,74.7,69.5,30.14,WSW,241,2.0,4.0,84,0.00,,,0.00,Wunderground v.1.15,2013-07-04 08:43:00,
2013-07-04 04:48:00,74.7,69.5,30.14,WSW,248,2.0,6.0,84,0.00,,,0.00,Wunderground v.1.15,2013-07-04 08:48:00,
2013-07-04 04:53:00,74.7,69.5,30.14,West,269,0.0,5.0,84,0.00,,,0.00,Wunderground v.1.15,2013-07-04 08:53:00,
2013-07-04 04:58:00,74.6,69.4,30.14,WSW,250,0.0,5.0,84,0.00,,,0.00,Wunderground v.1.15,2013-07-04 08:58:00,
2013-07-04 05:03:00,74.6,69.4,30.14,SW,230,2.0,4.0,84,0.00,,,0.00,Wunderground v.1.15,2013-07-04 09:03:00,
2013-07-04 05:08:00,74.6,69.8,30.14,SW,221,0.0,4.0,85,0.00,,,0.00,Wunderground v.1.15,2013-07-04 09:08:00,
2013-07-04 05:13:00,74.6,69.8,30.14,WSW,248,0.0,3.0,85,0.00,,,0.00,Wunderground v.1.15,2013-07-04 09:13:00,
2013-07-04 05:18:00,74.5,69.7,30.14,WSW,250,0.0,4.0,85,0.00,,,0.00,Wunderground v.1.15,2013-07-04 09:18:00,
2013-07-04 05:23:00,74.5,69.7,30.15,WSW,250,0.0,4.0,85,0.00,,,0.00,Wunderground v.1.15,2013-07-04 09:23:00,
2013-07-04 05:28:00,74.5,69.7,30.14,WSW,248,0.0,4.0,85,0.00,,,0.00,Wunderground v.1.15,2013-07-04 09:28:00,
2013-07-04 05:33:00,74.5,69.7,30.14,WSW,244,0.0,3.0,85,0.00,,,0.00,Wunderground v.1.15,2013-07-04 09:33:00,
2013-07-04 05:38:00,74.5,69.7,30.15,WSW,240,0.0,3.0,85,0.00,,,0.00,Wunderground v.1.15,2013-07-04 09:38:00,
2013-07-04 05:43:00,74.5,69.7,30.15,WSW,240,0.0,3.0,85,0.00,,,0.00,Wunderground v.1.15,2013-07-04 09:43:00,
2013-07-04 05:48:00,74.5,69.7,30.15,WSW,240,0.0,3.0,85,0.00,,,0.00,Wunderground v.1.15,2013-07-04 09:48:00,
2013-07-04 05:53:00,74.6,69.8,30.15,WSW,241,1.0,3.0,85,0.00,,,0.00,Wunderground v.1.15,2013-07-04 09:53:00,
2013-07-04 05:58:00,74.6,69.8,30.15,WSW,258,0.0,3.0,85,0.00,,,0.00,Wunderground v.1.15,2013-07-04 09:58:00,
2013-07-04 06:03:00,74.7,69.9,30.15,SW,234,2.0,3.0,85,0.00,,,0.00,Wunderground v.1.15,2013-07-04 10:03:00,
2013-07-04 06:08:00,74.8,70.0,30.15,West,268,0.0,4.0,85,0.00,,,0.00,Wunderground v.1.15,2013-07-04 10:08:00,
2013-07-04 06:13:00,74.9,70.4,30.15,SW,236,0.0,3.0,86,0.00,,,0.00,Wunderground v.1.15,2013-07-04 10:13:00,
2013-07-04 06:18:00,75.0,70.5,30.15,West,279,3.0,5.0,86,0.00,,,0.00,Wunderground v.1.15,2013-07-04 10:18:00,
2013-07-04 06:23:00,75.1,70.6,30.15,WSW,252,4.0,4.0,86,0.00,,,0.00,Wunderground v.1.15,2013-07-04 10:23:00,
2013-07-04 06:28:00,75.3,70.8,30.15,WNW,284,0.0,5.0,86,0.00,,,0.00,Wunderground v.1.15,2013-07-04 10:28:00,
2013-07-04 06:33:00,75.4,70.6,30.15,West,275,0.0,4.0,85,0.00,,,0.00,Wunderground v.1.15,2013-07-04 10:33:00,
2013-07-04 06:38:00,75.5,70.7,30.15,WSW,251,0.0,7.0,85,0.00,,,0.00,Wunderground v.1.15,2013-07-04 10:38:00,
2013-07-04 06:43:00,75.7,70.9,30.16,WSW,252,2.0,5.0,85,0.00,,,0.00,Wunderground v.1.15,2013-07-04 10:43:00,
2013-07-04 06:48:00,75.8,71.0,30.16,SW,219,1.0,8.0,85,0.00,,,0.00,Wunderground v.1.15,2013-07-04 10:48:00,
2013-07-04 06:53:00,76.0,71.2,30.15,West,264,0.0,7.0,85,0.00,,,0.00,Wunderground v.1.15,2013-07-04 10:53:00,
2013-07-04 06:59:00,76.2,71.4,30.16,WSW,245,0.0,7.0,85,0.00,,,0.00,Wunderground v.1.15,2013-07-04 10:59:00,
2013-07-04 07:04:00,76.4,71.6,30.15,WSW,241,2.0,6.0,85,0.00,,,0.00,Wunderground v.1.15,2013-07-04 11:04:00,
2013-07-04 07:09:00,76.6,71.7,30.16,West,273,3.0,9.0,85,0.00,,,0.00,Wunderground v.1.15,2013-07-04 11:09:00,
2013-07-04 07:14:00,76.7,71.5,30.16,West,277,1.0,6.0,84,0.00,,,0.00,Wunderground v.1.15,2013-07-04 11:14:00,
2013-07-04 07:19:00,76.9,71.7,30.16,SW,219,2.0,6.0,84,0.00,,,0.00,Wunderground v.1.15,2013-07-04 11:19:00,
2013-07-04 07:24:00,77.1,71.9,30.16,West,271,5.0,7.0,84,0.00,,,0.00,Wunderground v.1.15,2013-07-04 11:24:00,
2013-07-04 07:29:00,77.3,71.7,30.16,WSW,253,4.0,7.0,83,0.00,,,0.00,Wunderground v.1.15,2013-07-04 11:29:00,
2013-07-04 07:34:00,77.6,72.4,30.16,West,280,4.0,6.0,84,0.00,,,0.00,Wunderground v.1.15,2013-07-04 11:34:00,
2013-07-04 07:39:00,77.8,72.2,30.16,WSW,242,5.0,6.0,83,0.00,,,0.00,Wunderground v.1.15,2013-07-04 11:39:00,
2013-07-04 07:44:00,78.1,72.5,30.16,WNW,303,2.0,6.0,83,0.00,,,0.00,Wunderground v.1.15,2013-07-04 11:44:00,
2013-07-04 07:49:00,78.3,72.3,30.16,SW,233,1.0,7.0,82,0.00,,,0.00,Wunderground v.1.15,2013-07-04 11:49:00,
2013-07-04 07:54:00,78.5,72.5,30.16,West,273,1.0,6.0,82,0.00,,,0.00,Wunderground v.1.15,2013-07-04 11:54:00,
2013-07-04 07:59:00,78.7,72.7,30.17,WSW,240,4.0,7.0,82,0.00,,,0.00,Wunderground v.1.15,2013-07-04 11:59:00,
2013-07-04 08:04:00,78.8,72.5,30.16,WSW,249,1.0,6.0,81,0.00,,,0.00,Wunderground v.1.15,2013-07-04 12:04:00,
2013-07-04 08:09:00,79.1,72.8,30.16,NW,320,2.0,8.0,81,0.00,,,0.00,Wunderground v.1.15,2013-07-04 12:09:00,
2013-07-04 08:14:00,79.4,73.1,30.16,WNW,288,2.0,6.0,81,0.00,,,0.00,Wunderground v.1.15,2013-07-04 12:14:00,
2013-07-04 08:19:00,79.6,72.9,30.16,WSW,253,0.0,6.0,80,0.00,,,0.00,Wunderground v.1.15,2013-07-04 12:19:00,
2013-07-04 08:24:00,79.8,72.7,30.16,WSW,249,1.0,6.0,79,0.00,,,0.00,Wunderground v.1.15,2013-07-04 12:24:00,
2013-07-04 08:29:00,80.0,72.9,30.16,WSW,241,0.0,8.0,79,0.00,,,0.00,Wunderground v.1.15,2013-07-04 12:29:00,
2013-07-04 08:34:00,80.3,72.8,30.16,West,260,0.0,7.0,78,0.00,,,0.00,Wunderground v.1.15,2013-07-04 12:34:00,
2013-07-04 08:39:00,80.5,73.4,30.16,West,265,0.0,7.0,79,0.00,,,0.00,Wunderground v.1.15,2013-07-04 12:39:00,
2013-07-04 08:44:00,80.8,73.3,30.16,NW,309,3.0,9.0,78,0.00,,,0.00,Wunderground v.1.15,2013-07-04 12:44:00,
2013-07-04 08:49:00,81.1,74.0,30.16,WNW,284,2.0,9.0,79,0.00,,,0.00,Wunderground v.1.15,2013-07-04 12:49:00,
2013-07-04 08:54:00,81.4,73.5,30.16,WNW,291,4.0,7.0,77,0.00,,,0.00,Wunderground v.1.15,2013-07-04 12:54:00,
2013-07-04 08:59:00,81.8,73.9,30.16,WNW,294,3.0,8.0,77,0.00,,,0.00,Wunderground v.1.15,2013-07-04 12:59:00,
2013-07-04 09:04:00,82.1,73.8,30.16,West,260,4.0,9.0,76,0.00,,,0.00,Wunderground v.1.15,2013-07-04 13:04:00,
2013-07-04 09:09:00,82.2,73.5,30.16,North,349,3.0,9.0,75,0.00,,,0.00,Wunderground v.1.15,2013-07-04 13:09:00,
2013-07-04 09:14:00,82.4,73.7,30.16,WNW,288,2.0,8.0,75,0.00,,,0.00,Wunderground v.1.15,2013-07-04 13:14:00,
2013-07-04 09:19:00,82.6,73.9,30.16,West,275,5.0,8.0,75,0.00,,,0.00,Wunderground v.1.15,2013-07-04 13:19:00,
2013-07-04 09:24:00,82.9,74.2,30.16,NW,322,2.0,10.0,75,0.00,,,0.00,Wunderground v.1.15,2013-07-04 13:24:00,
2013-07-04 09:29:00,83.1,74.4,30.16,WSW,243,0.0,10.0,75,0.00,,,0.00,Wunderground v.1.15,2013-07-04 13:29:00,
2013-07-04 09:34:00,83.4,74.6,30.16,NW,309,3.0,9.0,75,0.00,,,0.00,Wunderground v.1.15,2013-07-04 13:34:00,
2013-07-04 09:39:00,83.5,74.3,30.16,WSW,244,2.0,3.0,74,0.00,,,0.00,Wunderground v.1.15,2013-07-04 13:39:00,
2013-07-04 09:45:00,83.7,74.5,30.15,West,261,3.0,10.0,74,0.00,,,0.00,Wunderground v.1.15,2013-07-04 13:45:00,
2013-07-04 09:50:00,83.9,74.3,30.15,SW,228,1.0,2.0,73,0.00,,,0.00,Wunderground v.1.15,2013-07-04 13:50:00,
2013-07-04 09:55:00,84.1,73.7,30.15,South,190,1.0,8.0,71,0.00,,,0.00,Wunderground v.1.15,2013-07-04 13:55:00,
2013-07-04 10:00:00,84.3,74.3,30.15,West,278,7.0,7.0,72,0.00,,,0.00,Wunderground v.1.15,2013-07-04 14:00:00,
2013-07-04 10:05:00,84.4,74.0,30.15,WNW,298,4.0,12.0,71,0.00,,,0.00,Wunderground v.1.15,2013-07-04 14:05:00,
2013-07-04 10:10:00,84.5,74.1,30.15,WSW,256,4.0,5.0,71,0.00,,,0.00,Wunderground v.1.15,2013-07-04 14:10:00,
2013-07-04 10:15:00,84.7,74.7,30.15,WSW,242,5.0,10.0,72,0.00,,,0.00,Wunderground v.1.15,2013-07-04 14:15:00,
2013-07-04 10:20:00,84.8,73.9,30.15,SSW,213,0.0,3.0,70,0.00,,,0.00,Wunderground v.1.15,2013-07-04 14:20:00,
2013-07-04 10:25:00,84.9,74.0,30.15,NW,321,4.0,9.0,70,0.00,,,0.00,Wunderground v.1.15,2013-07-04 14:25:00,
2013-07-04 10:30:00,85.2,75.1,30.14,WNW,284,3.0,3.0,72,0.00,,,0.00,Wunderground v.1.15,2013-07-04 14:30:00,
2013-07-04 10:35:00,85.3,74.4,30.14,West,276,4.0,6.0,70,0.00,,,0.00,Wunderground v.1.15,2013-07-04 14:35:00,
2013-07-04 10:40:00,85.4,74.1,30.14,WSW,246,7.0,8.0,69,0.00,,,0.00,Wunderground v.1.15,2013-07-04 14:40:00,
2013-07-04 10:45:00,85.4,73.6,30.14,West,268,6.0,10.0,68,0.00,,,0.00,Wunderground v.1.15,2013-07-04 14:45:00,
2013-07-04 10:50:00,85.5,74.2,30.14,WNW,290,1.0,4.0,69,0.00,,,0.00,Wunderground v.1.15,2013-07-04 14:50:00,
2013-07-04 10:55:00,85.6,74.7,30.14,West,268,2.0,10.0,70,0.00,,,0.00,Wunderground v.1.15,2013-07-04 14:55:00,
2013-07-04 11:00:00,85.6,74.7,30.14,WSW,242,5.0,8.0,70,0.00,,,0.00,Wunderground v.1.15,2013-07-04 15:00:00,
2013-07-04 11:05:00,85.7,73.9,30.14,WSW,239,1.0,8.0,68,0.00,,,0.00,Wunderground v.1.15,2013-07-04 15:05:00,
2013-07-04 11:10:00,85.7,73.9,30.13,West,276,2.0,4.0,68,0.00,,,0.00,Wunderground v.1.15,2013-07-04 15:10:00,
2013-07-04 11:15:00,85.8,73.6,30.14,West,265,4.0,11.0,67,0.00,,,0.00,Wunderground v.1.15,2013-07-04 15:15:00,
2013-07-04 11:20:00,85.8,73.6,30.13,NNW,329,4.0,4.0,67,0.00,,,0.00,Wunderground v.1.15,2013-07-04 15:20:00,
2013-07-04 11:25:00,86.0,73.8,30.13,West,281,7.0,9.0,67,0.00,,,0.00,Wunderground v.1.15,2013-07-04 15:25:00,
2013-07-04 11:30:00,86.1,73.9,30.13,WSW,257,3.0,11.0,67,0.00,,,0.00,Wunderground v.1.15,2013-07-04 15:30:00,
2013-07-04 11:35:00,86.1,73.4,30.13,NW,319,2.0,11.0,66,0.00,,,0.00,Wunderground v.1.15,2013-07-04 15:35:00,
2013-07-04 11:40:00,86.2,74.4,30.13,SW,234,2.0,4.0,68,0.00,,,0.00,Wunderground v.1.15,2013-07-04 15:40:00,
2013-07-04 11:45:00,86.3,74.0,30.13,WSW,256,1.0,11.0,67,0.00,,,0.00,Wunderground v.1.15,2013-07-04 15:45:00,
2013-07-04 11:50:00,86.4,74.1,30.12,West,279,7.0,7.0,67,0.00,,,0.00,Wunderground v.1.15,2013-07-04 15:50:00,
2013-07-04 11:55:00,86.7,74.4,30.13,SSW,205,4.0,8.0,67,0.00,,,0.00,Wunderground v.1.15,2013-07-04 15:55:00,
2013-07-04 12:00:00,86.8,73.2,30.12,SSW,207,8.0,11.0,64,0.00,,,0.00,Wunderground v.1.15,2013-07-04 16:00:00,
2013-07-04 12:05:00,87.0,72.9,30.12,South,191,7.0,14.0,63,0.00,,,0.00,Wunderground v.1.15,2013-07-04 16:05:00,
2013-07-04 12:10:00,87.3,73.6,30.12,WSW,244,0.0,5.0,64,0.00,,,0.00,Wunderground v.1.15,2013-07-04 16:10:00,
2013-07-04 12:15:00,87.4,73.3,30.12,SW,226,7.0,11.0,63,0.00,,,0.00,Wunderground v.1.15,2013-07-04 16:15:00,
2013-07-04 12:20:00,87.4,74.2,30.12,WSW,253,5.0,9.0,65,0.00,,,0.00,Wunderground v.1.15,2013-07-04 16:20:00,
2013-07-04 12:25:00,87.4,73.7,30.12,WNW,288,2.0,9.0,64,0.00,,,0.00,Wunderground v.1.15,2013-07-04 16:25:00,
2013-07-04 12:30:00,87.4,75.1,30.11,WSW,253,5.0,5.0,67,0.00,,,0.00,Wunderground v.1.15,2013-07-04 16:30:00,
2013-07-04 12:35:00,87.4,73.7,30.11,WSW,249,2.0,10.0,64,0.00,,,0.00,Wunderground v.1.15,2013-07-04 16:35:00,
2013-07-04 12:40:00,87.6,74.8,30.11,NW,309,1.0,5.0,66,0.00,,,0.00,Wunderground v.1.15,2013-07-04 16:40:00,
2013-07-04 12:45:00,87.8,75.0,30.11,WSW,254,1.0,9.0,66,0.00,,,0.00,Wunderground v.1.15,2013-07-04 16:45:00,
2013-07-04 12:50:00,87.8,74.1,30.11,WSW,252,2.0,5.0,64,0.00,,,0.00,Wunderground v.1.15,2013-07-04 16:50:00,
2013-07-04 12:55:00,87.8,74.6,30.10,SW,228,1.0,8.0,65,0.00,,,0.00,Wunderground v.1.15,2013-07-04 16:55:00,
2013-07-04 13:00:00,87.9,74.7,30.11,West,270,4.0,8.0,65,0.00,,,0.00,Wunderground v.1.15,2013-07-04 17:00:00,
2013-07-04 13:05:00,87.9,73.7,30.10,West,267,0.0,13.0,63,0.00,,,0.00,Wunderground v.1.15,2013-07-04 17:05:00,
2013-07-04 13:10:00,87.8,74.6,30.10,NW,323,8.0,8.0,65,0.00,,,0.00,Wunderground v.1.15,2013-07-04 17:10:00,
2013-07-04 13:15:00,87.7,74.5,30.10,WSW,253,7.0,11.0,65,0.00,,,0.00,Wunderground v.1.15,2013-07-04 17:15:00,
2013-07-04 13:20:00,87.7,74.0,30.10,WSW,251,4.0,7.0,64,0.00,,,0.00,Wunderground v.1.15,2013-07-04 17:20:00,
2013-07-04 13:25:00,87.7,74.0,30.10,NNW,332,10.0,10.0,64,0.00,,,0.00,Wunderground v.1.15,2013-07-04 17:25:00,
2013-07-04 13:30:00,87.8,74.6,30.10,WNW,295,6.0,9.0,65,0.00,,,0.00,Wunderground v.1.15,2013-07-04 17:30:00,
2013-07-04 13:35:00,87.8,74.1,30.10,WSW,238,1.0,9.0,64,0.00,,,0.00,Wunderground v.1.15,2013-07-04 17:35:00,
2013-07-04 13:40:00,87.8,73.2,30.10,South,179,2.0,7.0,62,0.00,,,0.00,Wunderground v.1.15,2013-07-04 17:40:00,
2013-07-04 13:45:00,87.9,74.2,30.09,NNW,336,3.0,13.0,64,0.00,,,0.00,Wunderground v.1.15,2013-07-04 17:45:00,
2013-07-04 13:50:00,88.0,74.8,30.09,NW,323,1.0,5.0,65,0.00,,,0.00,Wunderground v.1.15,2013-07-04 17:50:00,
2013-07-04 13:55:00,88.0,73.3,30.09,West,274,11.0,12.0,62,0.00,,,0.00,Wunderground v.1.15,2013-07-04 17:55:00,
2013-07-04 14:00:00,88.1,73.9,30.09,SW,230,3.0,6.0,63,0.00,,,0.00,Wunderground v.1.15,2013-07-04 18:00:00,
2013-07-04 14:01:00,88.1,73.9,30.09,WNW,303,4.0,8.0,63,0.00,,,0.00,Wunderground v.1.15,2013-07-04 18:01:00,
2013-07-04 14:06:00,88.3,74.6,30.09,NW,315,11.0,12.0,64,0.00,,,0.00,Wunderground v.1.15,2013-07-04 18:06:00,
2013-07-04 14:11:00,88.4,74.2,30.08,WNW,284,3.0,13.0,63,0.00,,,0.00,Wunderground v.1.15,2013-07-04 18:11:00,
2013-07-04 14:16:00,88.4,73.2,30.08,WNW,296,5.0,13.0,61,0.00,,,0.00,Wunderground v.1.15,2013-07-04 18:16:00,
2013-07-04 14:21:00,88.5,74.8,30.08,WNW,302,10.0,13.0,64,0.00,,,0.00,Wunderground v.1.15,2013-07-04 18:21:00,
2013-07-04 14:26:00,88.6,73.4,30.08,WNW,287,1.0,13.0,61,0.00,,,0.00,Wunderground v.1.15,2013-07-04 18:26:00,
2013-07-04 14:31:00,88.5,72.3,30.08,West,272,5.0,9.0,59,0.00,,,0.00,Wunderground v.1.15,2013-07-04 18:31:00,
2013-07-04 14:36:00,88.6,72.9,30.08,WNW,292,0.0,11.0,60,0.00,,,0.00,Wunderground v.1.15,2013-07-04 18:36:00,
2013-07-04 14:41:00,88.7,72.5,30.08,WNW,284,6.0,11.0,59,0.00,,,0.00,Wunderground v.1.15,2013-07-04 18:41:00,
2013-07-04 14:46:00,88.8,73.6,30.08,West,261,5.0,12.0,61,0.00,,,0.00,Wunderground v.1.15,2013-07-04 18:46:00,
2013-07-04 14:51:00,88.9,73.7,30.08,West,263,1.0,8.0,61,0.00,,,0.00,Wunderground v.1.15,2013-07-04 18:51:00,
2013-07-04 14:56:00,89.1,73.9,30.08,SSW,205,1.0,11.0,61,0.00,,,0.00,Wunderground v.1.15,2013-07-04 18:56:00,
2013-07-04 15:01:00,89.3,75.0,30.08,West,281,5.0,6.0,63,0.00,,,0.00,Wunderground v.1.15,2013-07-04 19:01:00,
2013-07-04 15:06:00,89.3,74.1,30.07,SW,215,9.0,12.0,61,0.00,,,0.00,Wunderground v.1.15,2013-07-04 19:06:00,
2013-07-04 15:11:00,89.2,73.5,30.07,West,281,3.0,10.0,60,0.00,,,0.00,Wunderground v.1.15,2013-07-04 19:11:00,
2013-07-04 15:16:00,89.2,73.5,30.07,WSW,248,4.0,12.0,60,0.00,,,0.00,Wunderground v.1.15,2013-07-04 19:16:00,
2013-07-04 15:22:00,89.1,73.4,30.07,West,272,5.0,7.0,60,0.00,,,0.00,Wunderground v.1.15,2013-07-04 19:22:00,
2013-07-04 15:27:00,89.1,73.4,30.07,WSW,249,5.0,11.0,60,0.00,,,0.00,Wunderground v.1.15,2013-07-04 19:27:00,
2013-07-04 15:32:00,88.9,72.2,30.07,West,271,2.0,8.0,58,0.00,,,0.00,Wunderground v.1.15,2013-07-04 19:32:00,
2013-07-04 15:37:00,88.8,73.1,30.07,WNW,286,0.0,12.0,60,0.00,,,0.00,Wunderground v.1.15,2013-07-04 19:37:00,
2013-07-04 15:42:00,88.9,73.2,30.07,SW,236,1.0,8.0,60,0.00,,,0.00,Wunderground v.1.15,2013-07-04 19:42:00,
2013-07-04 15:47:00,88.9,73.2,30.07,NW,323,6.0,10.0,60,0.00,,,0.00,Wunderground v.1.15,2013-07-04 19:47:00,
2013-07-04 15:52:00,89.0,73.3,30.07,West,269,4.0,10.0,60,0.00,,,0.00,Wunderground v.1.15,2013-07-04 19:52:00,
2013-07-04 15:57:00,88.9,72.7,30.07,WNW,298,7.0,13.0,59,0.00,,,0.00,Wunderground v.1.15,2013-07-04 19:57:00,
2013-07-04 16:02:00,88.8,73.1,30.06,WSW,238,2.0,7.0,60,0.00,,,0.00,Wunderground v.1.15,2013-07-04 20:02:00,
2013-07-04 16:07:00,88.8,74.1,30.06,NW,325,8.0,15.0,62,0.00,,,0.00,Wunderground v.1.15,2013-07-04 20:07:00,
2013-07-04 16:12:00,88.8,73.1,30.06,SSW,192,1.0,7.0,60,0.00,,,0.00,Wunderground v.1.15,2013-07-04 20:12:00,
2013-07-04 16:17:00,88.7,73.0,30.06,West,263,5.0,12.0,60,0.00,,,0.00,Wunderground v.1.15,2013-07-04 20:17:00,
2013-07-04 16:22:00,88.7,73.5,30.06,West,259,3.0,11.0,61,0.00,,,0.00,Wunderground v.1.15,2013-07-04 20:22:00,
2013-07-04 16:27:00,88.6,73.4,30.06,SSW,211,7.0,12.0,61,0.00,,,0.00,Wunderground v.1.15,2013-07-04 20:27:00,
2013-07-04 16:32:00,88.6,73.9,30.06,West,259,5.0,8.0,62,0.00,,,0.00,Wunderground v.1.15,2013-07-04 20:32:00,
2013-07-04 16:37:00,88.6,74.4,30.06,West,279,2.0,9.0,63,0.00,,,0.00,Wunderground v.1.15,2013-07-04 20:37:00,
2013-07-04 16:42:00,88.6,73.4,30.06,SSW,192,5.0,12.0,61,0.00,,,0.00,Wunderground v.1.15,2013-07-04 20:42:00,
2013-07-04 16:47:00,88.7,74.0,30.06,WNW,298,2.0,12.0,62,0.00,,,0.00,Wunderground v.1.15,2013-07-04 20:47:00,
2013-07-04 16:52:00,88.8,73.6,30.06,SW,229,7.0,10.0,61,0.00,,,0.00,Wunderground v.1.15,2013-07-04 20:52:00,
2013-07-04 16:57:00,88.7,73.0,30.05,SW,232,1.0,15.0,60,0.00,,,0.00,Wunderground v.1.15,2013-07-04 20:57:00,
2013-07-04 17:02:00,88.7,73.0,30.05,WNW,287,3.0,10.0,60,0.00,,,0.00,Wunderground v.1.15,2013-07-04 21:02:00,
2013-07-04 17:07:00,88.7,73.5,30.05,West,263,9.0,16.0,61,0.00,,,0.00,Wunderground v.1.15,2013-07-04 21:07:00,
2013-07-04 17:12:00,88.7,73.5,30.05,NW,315,2.0,10.0,61,0.00,,,0.00,Wunderground v.1.15,2013-07-04 21:12:00,
2013-07-04 17:17:00,88.7,73.5,30.05,SSW,209,6.0,12.0,61,0.00,,,0.00,Wunderground v.1.15,2013-07-04 21:17:00,
2013-07-04 17:22:00,88.8,74.1,30.05,West,261,4.0,7.0,62,0.00,,,0.00,Wunderground v.1.15,2013-07-04 21:22:00,
2013-07-04 17:27:00,88.8,73.6,30.05,SW,236,8.0,9.0,61,0.00,,,0.00,Wunderground v.1.15,2013-07-04 21:27:00,
2013-07-04 17:32:00,88.8,73.1,30.05,NW,309,6.0,14.0,60,0.00,,,0.00,Wunderground v.1.15,2013-07-04 21:32:00,
2013-07-04 17:37:00,88.8,73.1,30.05,West,274,12.0,14.0,60,0.00,,,0.00,Wunderground v.1.15,2013-07-04 21:37:00,
2013-07-04 17:42:00,88.8,73.1,30.05,WSW,250,9.0,9.0,60,0.00,,,0.00,Wunderground v.1.15,2013-07-04 21:42:00,
2013-07-04 17:47:00,88.8,73.1,30.05,WNW,286,4.0,11.0,60,0.00,,,0.00,Wunderground v.1.15,2013-07-04 21:47:00,
2013-07-04 17:52:00,88.8,73.1,30.05,WSW,256,0.0,10.0,60,0.00,,,0.00,Wunderground v.1.15,2013-07-04 21:52:00,
2013-07-04 17:57:00,88.7,74.0,30.05,SW,234,3.0,10.0,62,0.00,,,0.00,Wunderground v.1.15,2013-07-04 21:57:00,
2013-07-04 18:02:00,88.6,72.9,30.05,West,270,6.0,12.0,60,0.00,,,0.00,Wunderground v.1.15,2013-07-04 22:02:00,
2013-07-04 18:07:00,88.5,73.3,30.05,West,277,7.0,12.0,61,0.00,,,0.00,Wunderground v.1.15,2013-07-04 22:07:00,
2013-07-04 18:12:00,88.4,73.2,30.05,WSW,244,7.0,11.0,61,0.00,,,0.00,Wunderground v.1.15,2013-07-04 22:12:00,
2013-07-04 18:17:00,88.3,72.7,30.05,WNW,300,4.0,11.0,60,0.00,,,0.00,Wunderground v.1.15,2013-07-04 22:17:00,
2013-07-04 18:22:00,88.2,73.0,30.05,WSW,254,8.0,10.0,61,0.00,,,0.00,Wunderground v.1.15,2013-07-04 22:22:00,
2013-07-04 18:27:00,88.1,73.4,30.05,WNW,291,10.0,12.0,62,0.00,,,0.00,Wunderground v.1.15,2013-07-04 22:27:00,
2013-07-04 18:32:00,88.1,73.0,30.05,WSW,255,2.0,11.0,61,0.00,,,0.00,Wunderground v.1.15,2013-07-04 22:32:00,
2013-07-04 18:37:00,88.1,73.0,30.05,WSW,237,3.0,15.0,61,0.00,,,0.00,Wunderground v.1.15,2013-07-04 22:37:00,
2013-07-04 18:42:00,88.0,72.9,30.05,WNW,283,3.0,13.0,61,0.00,,,0.00,Wunderground v.1.15,2013-07-04 22:42:00,
2013-07-04 18:47:00,87.9,73.3,30.05,West,269,1.0,13.0,62,0.00,,,0.00,Wunderground v.1.15,2013-07-04 22:47:00,
2013-07-04 18:52:00,87.9,73.3,30.05,WSW,240,5.0,15.0,62,0.00,,,0.00,Wunderground v.1.15,2013-07-04 22:52:00,
2013-07-04 18:57:00,87.8,73.2,30.05,West,262,3.0,15.0,62,0.00,,,0.00,Wunderground v.1.15,2013-07-04 22:57:00,
2013-07-04 19:02:00,87.8,73.6,30.05,SW,224,5.0,11.0,63,0.00,,,0.00,Wunderground v.1.15,2013-07-04 23:02:00,
2013-07-04 19:07:00,87.7,74.0,30.05,WSW,256,3.0,11.0,64,0.00,,,0.00,Wunderground v.1.15,2013-07-04 23:07:00,
2013-07-04 19:13:00,87.6,73.9,30.05,WSW,242,4.0,6.0,64,0.00,,,0.00,Wunderground v.1.15,2013-07-04 23:13:00,
2013-07-04 19:18:00,87.5,74.3,30.05,WNW,298,4.0,13.0,65,0.00,,,0.00,Wunderground v.1.15,2013-07-04 23:18:00,
2013-07-04 19:23:00,87.4,74.2,30.06,South,186,4.0,10.0,65,0.00,,,0.00,Wunderground v.1.15,2013-07-04 23:23:00,
2013-07-04 19:28:00,87.3,74.1,30.06,West,260,4.0,10.0,65,0.00,,,0.00,Wunderground v.1.15,2013-07-04 23:28:00,
2013-07-04 19:33:00,87.1,73.9,30.06,SSW,192,1.0,4.0,65,0.00,,,0.00,Wunderground v.1.15,2013-07-04 23:33:00,
2013-07-04 19:38:00,87.1,74.4,30.06,SW,235,3.0,12.0,66,0.00,,,0.00,Wunderground v.1.15,2013-07-04 23:38:00,
2013-07-04 19:43:00,87.0,73.8,30.06,WSW,239,2.0,9.0,65,0.00,,,0.00,Wunderground v.1.15,2013-07-04 23:43:00,
2013-07-04 19:48:00,86.9,74.2,30.06,SW,233,4.0,9.0,66,0.00,,,0.00,Wunderground v.1.15,2013-07-04 23:48:00,
2013-07-04 19:53:00,86.8,74.1,30.06,West,259,4.0,6.0,66,0.00,,,0.00,Wunderground v.1.15,2013-07-04 23:53:00,
2013-07-04 19:58:00,86.6,73.9,30.06,SSW,208,3.0,11.0,66,0.00,,,0.00,Wunderground v.1.15,2013-07-04 23:58:00,
2013-07-04 20:03:00,86.5,74.2,30.06,South,173,1.0,6.0,67,0.00,,,0.00,Wunderground v.1.15,2013-07-05 00:03:00,
2013-07-04 20:08:00,86.5,74.2,30.06,SW,223,3.0,9.0,67,0.00,,,0.00,Wunderground v.1.15,2013-07-05 00:08:00,
2013-07-04 20:13:00,86.4,74.1,30.06,WSW,255,4.0,7.0,67,0.00,,,0.00,Wunderground v.1.15,2013-07-05 00:13:00,
2013-07-04 20:18:00,86.3,74.5,30.07,SW,231,3.0,7.0,68,0.00,,,0.00,Wunderground v.1.15,2013-07-05 00:18:00,
2013-07-04 20:23:00,86.1,73.9,30.07,WNW,283,1.0,3.0,67,0.00,,,0.00,Wunderground v.1.15,2013-07-05 00:23:00,
2013-07-04 20:28:00,86.0,74.2,30.07,WSW,254,4.0,6.0,68,0.00,,,0.00,Wunderground v.1.15,2013-07-05 00:28:00,
2013-07-04 20:33:00,85.9,74.1,30.07,SSW,196,8.0,10.0,68,0.00,,,0.00,Wunderground v.1.15,2013-07-05 00:33:00,
2013-07-04 20:38:00,85.7,73.9,30.07,WSW,248,2.0,10.0,68,0.00,,,0.00,Wunderground v.1.15,2013-07-05 00:38:00,
2013-07-04 20:43:00,85.6,74.3,30.07,WSW,246,3.0,8.0,69,0.00,,,0.00,Wunderground v.1.15,2013-07-05 00:43:00,
2013-07-04 20:48:00,85.4,74.1,30.07,SSW,213,0.0,10.0,69,0.00,,,0.00,Wunderground v.1.15,2013-07-05 00:48:00,
2013-07-04 20:53:00,85.3,74.0,30.07,WSW,244,5.0,8.0,69,0.00,,,0.00,Wunderground v.1.15,2013-07-05 00:53:00,
2013-07-04 20:58:00,85.2,73.9,30.07,WSW,252,4.0,10.0,69,0.00,,,0.00,Wunderground v.1.15,2013-07-05 00:58:00,
2013-07-04 21:03:00,85.1,74.2,30.08,SW,223,4.0,12.0,70,0.00,,,0.00,Wunderground v.1.15,2013-07-05 01:03:00,
2013-07-04 21:08:00,85.0,74.1,30.08,SSW,207,6.0,12.0,70,0.00,,,0.00,Wunderground v.1.15,2013-07-05 01:08:00,
2013-07-04 21:13:00,84.9,74.0,30.07,WSW,249,1.0,9.0,70,0.00,,,0.00,Wunderground v.1.15,2013-07-05 01:13:00,
2013-07-04 21:18:00,84.7,73.8,30.08,WSW,255,7.0,14.0,70,0.00,,,0.00,Wunderground v.1.15,2013-07-05 01:18:00,
2013-07-04 21:23:00,84.6,73.7,30.08,SW,236,1.0,8.0,70,0.00,,,0.00,Wunderground v.1.15,2013-07-05 01:23:00,
2013-07-04 21:28:00,84.5,74.1,30.08,West,264,9.0,15.0,71,0.00,,,0.00,Wunderground v.1.15,2013-07-05 01:28:00,
2013-07-04 21:33:00,84.3,73.9,30.08,SSW,211,7.0,10.0,71,0.00,,,0.00,Wunderground v.1.15,2013-07-05 01:33:00,
2013-07-04 21:38:00,84.2,74.2,30.08,WSW,240,6.0,10.0,72,0.00,,,0.00,Wunderground v.1.15,2013-07-05 01:38:00,
2013-07-04 21:43:00,84.0,74.0,30.08,WSW,238,2.0,11.0,72,0.00,,,0.00,Wunderground v.1.15,2013-07-05 01:43:00,
2013-07-04 21:48:00,83.8,73.8,30.08,South,190,8.0,11.0,72,0.00,,,0.00,Wunderground v.1.15,2013-07-05 01:48:00,
2013-07-04 21:53:00,83.7,74.1,30.08,WSW,248,2.0,9.0,73,0.00,,,0.00,Wunderground v.1.15,2013-07-05 01:53:00,
2013-07-04 21:58:00,83.6,74.0,30.08,West,265,4.0,9.0,73,0.00,,,0.00,Wunderground v.1.15,2013-07-05 01:58:00,
2013-07-04 22:03:00,83.4,73.8,30.08,WSW,238,2.0,10.0,73,0.00,,,0.00,Wunderground v.1.15,2013-07-05 02:03:00,
2013-07-04 22:08:00,83.2,73.6,30.08,WNW,294,4.0,10.0,73,0.00,,,0.00,Wunderground v.1.15,2013-07-05 02:08:00,
2013-07-04 22:13:00,83.1,73.9,30.08,WSW,244,2.0,12.0,74,0.00,,,0.00,Wunderground v.1.15,2013-07-05 02:13:00,
2013-07-04 22:18:00,82.9,73.8,30.08,WSW,249,1.0,12.0,74,0.00,,,0.00,Wunderground v.1.15,2013-07-05 02:18:00,
2013-07-04 22:23:00,82.9,73.8,30.08,WSW,252,0.0,10.0,74,0.00,,,0.00,Wunderground v.1.15,2013-07-05 02:23:00,
2013-07-04 22:28:00,82.7,73.6,30.08,WSW,252,6.0,10.0,74,0.00,,,0.00,Wunderground v.1.15,2013-07-05 02:28:00,
2013-07-04 22:33:00,82.6,73.5,30.08,WNW,285,2.0,10.0,74,0.00,,,0.00,Wunderground v.1.15,2013-07-05 02:33:00,
2013-07-04 22:38:00,82.5,73.8,30.08,SSW,196,4.0,10.0,75,0.00,,,0.00,Wunderground v.1.15,2013-07-05 02:38:00,
2013-07-04 22:43:00,82.4,73.7,30.08,West,260,1.0,6.0,75,0.00,,,0.00,Wunderground v.1.15,2013-07-05 02:43:00,
2013-07-04 22:48:00,82.2,73.5,30.09,South,175,2.0,8.0,75,0.00,,,0.00,Wunderground v.1.15,2013-07-05 02:48:00,
2013-07-04 22:53:00,82.1,73.4,30.09,SW,234,4.0,12.0,75,0.00,,,0.00,Wunderground v.1.15,2013-07-05 02:53:00,
2013-07-04 22:58:00,82.1,73.4,30.09,WSW,255,4.0,12.0,75,0.00,,,0.00,Wunderground v.1.15,2013-07-05 02:58:00,
2013-07-04 23:03:00,82.0,73.3,30.09,West,267,0.0,8.0,75,0.00,,,0.00,Wunderground v.1.15,2013-07-05 03:03:00,
2013-07-04 23:08:00,81.9,73.2,30.09,WSW,244,7.0,12.0,75,0.00,,,0.00,Wunderground v.1.15,2013-07-05 03:08:00,
2013-07-04 23:13:00,81.7,73.0,30.09,SW,233,2.0,11.0,75,0.00,,,0.00,Wunderground v.1.15,2013-07-05 03:13:00,
2013-07-04 23:18:00,81.6,72.9,30.09,West,268,0.0,13.0,75,0.00,,,0.00,Wunderground v.1.15,2013-07-05 03:18:00,
2013-07-04 23:23:00,81.5,73.2,30.08,West,260,2.0,6.0,76,0.00,,,0.00,Wunderground v.1.15,2013-07-05 03:23:00,
2013-07-04 23:28:00,81.4,73.1,30.09,WSW,241,4.0,10.0,76,0.00,,,0.00,Wunderground v.1.15,2013-07-05 03:28:00,
2013-07-04 23:33:00,81.3,73.0,30.08,West,273,3.0,6.0,76,0.00,,,0.00,Wunderground v.1.15,2013-07-05 03:33:00,
2013-07-04 23:38:00,81.2,72.9,30.08,NW,313,3.0,7.0,76,0.00,,,0.00,Wunderground v.1.15,2013-07-05 03:38:00,
2013-07-04 23:43:00,81.2,72.9,30.08,WNW,303,1.0,9.0,76,0.00,,,0.00,Wunderground v.1.15,2013-07-05 03:43:00,
2013-07-04 23:48:00,81.1,72.8,30.08,SW,215,2.0,9.0,76,0.00,,,0.00,Wunderground v.1.15,2013-07-05 03:48:00,
2013-07-04 23:53:00,81.0,72.7,30.08,SW,234,4.0,6.0,76,0.00,,,0.00,Wunderground v.1.15,2013-07-05 03:53:00,
2013-07-04 23:58:00,80.9,72.6,30.09,SW,227,8.0,8.0,76,0.00,,,0.00,Wunderground v.1.15,2013-07-05 03:58:00,